Regional Weather Roundup
Issued by NWS

Home | Current Version | Previous Version | Text Only | Print | Product List | Glossary Off
Versions: 1 2 3 4 5 6 7 8 9 10 11 12 13 14 15 16 17 18 19 20 21 22 23 24 25 26 27 28 29 30 31 32 33 34 35 36 37 38 39 40 41 42 43 44 45 46 47 48 49 50

000
ASUS43 KIND 311159
RWRIN

WEATHER ROUNDUP FOR INDIANA
NATIONAL WEATHER SERVICE INDIANAPOLIS IN
800 AM EDT WED AUG 31 2016

NOTE: "FAIR" INDICATES FEW OR NO CLOUDS BELOW 12,000 FEET WITH NO
SIGNIFICANT WEATHER AND/OR OBSTRUCTIONS TO VISIBILITY.

* - STATION DOES NOT REPORT WEATHER SUCH AS PRECIPITATION OR FOG.

+ - STATION NOT QUALITY CONTROLLED BY THE NATIONAL WEATHER SERVICE.
    USE DATA WITH CAUTION...ESPECIALLY DEWPOINT AND RELATIVE
    HUMIDITY OBSERVATIONS.

INZ001>003-010>013-019-020-311300-
NORTHWEST INDIANA

CITY           SKY/WX    TMP DP  RH WIND       PRES   REMARKS
GARY /AIRPORT/ CLOUDY    73  72  94 W7        30.05R
KNOX *+          N/A     68  59  73 CALM      30.03R VSB<1/4
MONTICELLO +   CLOUDY    69  65  88 CALM      30.03R FOG
6HR MIN TEMP:  69; 6HR MAX TEMP:  71;


$$

LMZ046-743>745-311300-
SOUTHERN LAKE MICHIGAN

STATION/POSITION TIME  TEMP    WIND        PRES    WAVE
                       AIR SEA DIR/SP/G            HT
                 (UTC) (F)     (DEG/KT/KT) (MB)    (FT)
BURNS HARBOR     1104   74     350/  6/  9 1017.3R
MICHIGAN CITY    1100   72     310/  8/  9   N/A
5NW MICH CITY    1100   73 69  330/  8/ 10   N/A     1

$$

INZ004-005-014>016-021>024-311300-
NORTH CENTRAL INDIANA

CITY           SKY/WX    TMP DP  RH WIND       PRES   REMARKS
ELKHART        FOG      N/A N/A N/A CALM      30.02S VSB 1/2
GOSHEN         CLOUDY    70  68  93 CALM      30.02S FOG
6HR MIN TEMP:  69; 6HR MAX TEMP:  71;

SOUTH BEND     MOCLDY    69  69 100 CALM      30.03R FOG
6HR MIN TEMP:  69; 6HR MAX TEMP:  71;


$$

INZ006>009-017-018-025>027-311300-
NORTHEAST INDIANA

CITY           SKY/WX    TMP DP  RH WIND       PRES   REMARKS
ANGOLA *+      CLOUDY    70  63  78 CALM      30.03R
FORT WAYNE     CLOUDY    70  68  93 W3        30.03R FOG
6HR MIN TEMP:  68; 6HR MAX TEMP:  70;


$$

INZ028-029-035-036-043>045-051>053-311300-
WEST CENTRAL INDIANA

CITY           SKY/WX    TMP DP  RH WIND       PRES   REMARKS
CRAWFORDSVL +  FOG       68  68 100 CALM      30.04S VSB<1/4
6HR MIN TEMP:  66; 6HR MAX TEMP:  69;

LAFAYETTE      FOG       70  70 100 CALM      30.03R VSB 3/4
6HR MIN TEMP:  69; 6HR MAX TEMP:  71;

TERRE HAUTE    FOG       69  66  90 CALM      30.04R VSB 1/4
6HR MIN TEMP:  69; 6HR MAX TEMP:  72;


$$

INZ030>032-037>040-046>048-054>057-064-065-311300-
CENTRAL INDIANA

CITY           SKY/WX    TMP DP  RH WIND       PRES   REMARKS
COLUMBUS       FOG       68  68 100 NW3       30.04R VSB 1/4
INDIANAPOLIS   PTCLDY    70  69  97 W5        30.03S
6HR MIN TEMP:  69; 6HR MAX TEMP:  72;

-EAGLE CREEK   CLEAR     70  68  93 CALM      30.03R FOG
6HR MIN TEMP:  70; 6HR MAX TEMP:  73;

KOKOMO *+      MOCLDY    70  70 100 NW5       30.03S
6HR MIN TEMP:  66; 6HR MAX TEMP:  70;

MT COMFORT *+    N/A     68  68 100 CALM      30.04S
SHELBYVILLE    FOG       71  69  93 CALM      30.03S VSB<1/4
6HR MIN TEMP:  70; 6HR MAX TEMP:  72;


$$

INZ033-034-041-042-049-050-058-059-311300-
EAST CENTRAL INDIANA

CITY           SKY/WX    TMP DP  RH WIND       PRES   REMARKS
MUNCIE         MOCLDY    71  69  93 MISG      30.04R FOG
6HR MIN TEMP:  69; 6HR MAX TEMP:  71;


$$

INZ060-061-067>069-081>083-085>088-311300-
SOUTHWEST INDIANA

CITY           SKY/WX    TMP DP  RH WIND       PRES   REMARKS
EVANSVILLE     PTCLDY    73  70  90 VRB5      30.03R
6HR MIN TEMP:  72; 6HR MAX TEMP:  76;

HUNTINGBURG *+ PTCLDY    72  70  94 N3        30.03S
6HR MIN TEMP:  70; 6HR MAX TEMP:  73;


$$

INZ062-063-066-070>080-084-089>092-311300-
SOUTH CENTRAL AND SOUTHEAST INDIANA

CITY           SKY/WX    TMP DP  RH WIND       PRES   REMARKS
BLOOMINGTON    FOG       69  68  96 CALM      30.04R VSB 1/4
6HR MIN TEMP:  69; 6HR MAX TEMP:  71;

MADISON *+     PTCLDY    70  68  94 CALM      30.05R

$$





USA.gov is the U.S. government's official web portal to all federal, state and local government web resources and services.